Temperature
0 0 0 0 0 0 0 0 0 0 0 0 0 0 1 1 1 1 1 1 1 1 0 1 1 1 1 1 1 0 0 0 0 1 1 1 1 1 1 1 1 1 1
-0 -0 -0 -0 -0 -0 -0 -0 -0 -0 -0 -0 -0 -0 -0 0 0 0 0 0 0 0 -0 -0 -0 -0 -0 -0 -0 -0 -0 -0 -0 -0 0 0 0 0 0 0 0 0 0
-1 -1 -1 -1 -1 -1 -1 -1 -1 -1 -1 -1 -1 -1 -1 -0 -0 -0 -0 -0 -1 -1 -1 -1 -1 -1 -1 -1 -1 -1 -1 -1 -1 -1 -0 -0 -0 -0 -0 -0 -0 -0 -0
-2 -2 -2 -2 -2 -2 -2 -2 -1 -1 -1 -1 -1 -1 -1 -1 -1 -1 -1 -1 -1 -1 -1 -1 -1 -1 -1 -1 -1 -1 -1 -1 -1 -1 -1 -1 -1 -1 -1 -1 -1 -1 -1
-3 -3 -2 -2 -2 -2 -2 -2 -2 -2 -2 -2 -2 -2 -2 -2 -2 -2 -2 -2 -2 -2 -2 -2 -2 -2 -2 -2 -2 -2 -2 -2 -2 -2 -2 -2 -2 -2 -2 -2 -2 -2 -2
-3 -3 -3 -3 -3 -3 -3 -3 -3 -3 -3 -3 -3 -3 -3 -3 -3 -3 -3 -3 -3 -3 -3 -3 -3 -2 -2 -2 -2 -3 -3 -3 -3 -3 -3 -3 -2 -2 -3 -3 -3 -3 -3
-4 -4 -4 -4 -4 -4 -4 -4 -4 -3 -3 -4 -4 -3 -3 -3 -3 -3 -4 -3 -3 -3 -3 -3 -3 -3 -3 -3 -3 -3 -3 -3 -3 -3 -4 -3 -3 -3 -3 -3 -3 -3 -3
-5 -5 -5 -5 -5 -4 -4 -4 -4 -4 -4 -4 -4 -4 -4 -4 -4 -4 -4 -4 -4 -4 -4 -4 -4 -4 -4 -4 -4 -4 -4 -4 -4 -4 -4 -4 -4 -4 -4 -4 -4 -4 -4
-5 -5 -5 -5 -5 -5 -5 -5 -5 -5 -5 -5 -5 -5 -5 -5 -5 -5 -5 -5 -5 -5 -5 -5 -5 -5 -4 -5 -5 -5 -5 -5 -5 -5 -5 -5 -5 -5 -5 -5 -5 -5 -5
-6 -6 -6 -6 -6 -6 -6 -6 -6 -6 -6 -6 -6 -6 -6 -5 -5 -6 -6 -6 -6 -6 -6 -5 -5 -5 -5 -6 -6 -6 -6 -5 -5 -5 -5 -5 -5 -5 -5 -5 -6 -6 -6
-6 -6 -6 -6 -6 -6 -6 -6 -6 -6 -6 -6 -6 -6 -6 -6 -6 -6 -6 -6 -6 -6 -6 -6 -6 -6 -6 -7 -7 -7 -6 -6 -6 -6 -6 -6 -6 -6 -6 -6 -6 -6 -6
-7 -7 -7 -7 -7 -7 -7 -7 -7 -7 -7 -7 -7 -7 -7 -7 -7 -7 -7 -7 -7 -7 -7 -7 -7 -7 -7 -7 -7 -7 -7 -7 -7 -7 -7 -7 -7 -7 -7 -7 -7 -7 -7
-8 -8 -8 -8 -8 -8 -8 -8 -8 -8 -8 -8 -8 -8 -8 -8 -8 -7 -7 -7 -8 -8 -8 -8 -8 -8 -8 -8 -8 -8 -8 -8 -8 -8 -8 -8 -8 -7 -7 -7 -7 -7 -7
-9 -9 -9 -9 -9 -9 -9 -9 -9 -9 -9 -9 -9 -9 -9 -8 -8 -8 -8 -8 -8 -8 -8 -8 -8 -8 -8 -8 -8 -8 -8 -8 -8 -8 -8 -8 -8 -8 -8 -8 -8 -8 -8
-9 -9 -9 -9 -10 -9 -9 -9 -9 -9 -9 -9 -9 -9 -9 -9 -9 -9 -9 -9 -9 -9 -9 -9 -9 -9 -9 -9 -9 -9 -9 -9 -9 -9 -9 -9 -9 -9 -9 -9 -9 -9 -9
-10 -10 -10 -10 -10 -10 -10 -10 -10 -10 -10 -10 -10 -10 -10 -10 -10 -10 -10 -10 -10 -10 -10 -10 -9 -9 -9 -9 -10 -10 -9 -9 -9 -9 -9 -9 -9 -9 -9 -9 -9 -9 -9
-11 -11 -11 -11 -11 -11 -11 -11 -11 -10 -10 -10 -10 -10 -10 -10 -10 -10 -10 -10 -10 -10 -10 -10 -10 -10 -10 -10 -10 -10 -10 -10 -10 -10 -10 -10 -10 -10 -10 -10 -10 -10 -10
-11 -11 -11 -11 -11 -11 -11 -11 -11 -11 -11 -11 -11 -11 -11 -11 -11 -11 -11 -11 -11 -11 -11 -11 -11 -11 -11 -11 -11 -11 -11 -11 -11 -10 -10 -10 -10 -10 -10 -10 -10 -10 -10
-12 -12 -12 -12 -12 -12 -12 -12 -12 -12 -12 -12 -12 -12 -12 -12 -11 -11 -11 -11 -11 -11 -12 -12 -12 -12 -11 -11 -11 -11 -11 -11 -11 -11 -11 -11 -11 -11 -11 -11 -11 -11 -11
-12 -12 -12 -12 -13 -13 -13 -13 -13 -13 -13 -13 -13 -12 -12 -12 -12 -12 -12 -12 -12 -12 -12 -12 -12 -12 -12 -12 -12 -12 -12 -12 -12 -12 -11 -11 -11 -11 -11 -11 -11 -11 -11
-13 -13 -13 -13 -13 -13 -13 -13 -13 -13 -13 -13 -13 -13 -13 -13 -13 -13 -13 -13 -13 -13 -13 -13 -13 -13 -12 -12 -12 -12 -12 -12 -12 -12 -12 -12 -12 -12 -11 -11 -11 -11 -11
-14 -14 -14 -14 -14 -14 -14 -14 -14 -14 -14 -14 -13 -13 -14 -13 -13 -13 -13 -13 -13 -13 -13 -13 -13 -13 -13 -13 -13 -13 -13 -13 -13 -13 -12 -12 -12 -12 -12 -12 -12 -12 -12
-14 -14 -14 -14 -14 -14 -14 -14 -14 -14 -14 -14 -14 -14 -14 -14 -14 -14 -14 -14 -14 -14 -14 -14 -14 -13 -13 -13 -13 -13 -13 -13 -13 -13 -13 -13 -13 -12 -12 -12 -12 -12 -12
-14 -14 -14 -14 -14 -14 -14 -14 -14 -14 -14 -14 -14 -14 -14 -14 -14 -14 -14 -14 -14 -14 -14 -14 -14 -14 -14 -14 -14 -14 -13 -13 -13 -13 -13 -13 -13 -13 -13 -13 -13 -13 -12
-15 -15 -14 -15 -15 -15 -15 -15 -15 -15 -15 -15 -15 -15 -15 -15 -14 -14 -14 -14 -14 -14 -14 -14 -14 -14 -14 -14 -14 -14 -14 -14 -14 -14 -13 -13 -13 -13 -13 -13 -13 -13 -13
-15 -15 -15 -15 -15 -15 -15 -15 -15 -15 -15 -15 -15 -15 -15 -15 -15 -15 -15 -15 -15 -15 -14 -14 -14 -14 -14 -14 -14 -14 -14 -14 -14 -14 -14 -14 -14 -13 -13 -13 -13 -13 -13
Wind_Speed
1 1 1 1 1 1 1 1 1 1 1 2 2 2 2 3 3 3 3 3 4 3 3 4 4 4 4 3 3 4 4 5 6 6 4 4 5 5 4 4 5 5 5
2 2 2 1 1 1 1 1 1 1 2 2 3 3 3 3 3 4 4 4 4 5 4 4 4 4 5 4 4 4 4 5 6 7 6 4 5 5 5 5 4 5 5
2 2 2 1 1 2 2 2 1 2 2 2 3 3 3 3 4 4 4 5 5 5 6 6 5 5 5 4 4 4 4 4 5 6 6 5 4 4 4 5 5 5 5
2 2 2 2 2 2 2 2 2 2 2 2 3 3 4 4 4 4 4 4 5 5 5 5 5 5 5 5 5 5 4 5 5 5 5 5 5 4 4 4 5 4 5
2 2 2 2 2 2 2 2 2 2 2 3 3 3 3 3 4 4 4 5 4 4 5 5 5 6 6 6 5 5 5 5 5 5 5 5 5 4 4 4 5 5 5
2 3 2 2 2 2 2 2 2 2 2 3 3 3 3 3 4 6 5 4 5 5 4 4 5 6 6 7 7 7 6 6 6 5 6 6 7 6 5 5 5 5 4
3 3 2 2 2 2 2 2 2 2 2 3 3 3 4 4 5 6 6 5 4 5 5 4 4 5 6 5 6 7 7 8 8 7 8 8 7 6 6 7 7 6 6
3 3 3 3 3 2 2 2 2 2 2 3 3 3 4 4 5 6 6 5 4 5 5 5 5 5 5 5 5 5 6 6 7 7 7 7 7 6 6 7 7 7 5
3 3 3 3 3 3 3 3 3 2 3 3 3 3 4 4 5 5 5 3 4 4 4 4 5 5 6 7 6 6 6 6 6 6 7 7 8 7 6 4 5 5 6
4 3 3 3 3 3 3 3 3 3 3 3 3 3 4 4 5 5 5 3 4 4 4 4 5 6 7 8 7 6 7 6 5 5 6 6 7 7 7 6 6 6 5
3 3 3 3 3 3 3 2 3 2 2 3 3 4 4 4 5 5 5 3 4 4 4 4 4 6 7 7 7 7 8 6 5 5 5 5 5 5 5 6 6 6 6
2 2 2 2 2 2 2 2 3 3 3 3 3 3 3 4 4 5 5 5 5 4 5 4 5 7 7 8 7 7 8 6 5 5 5 5 5 5 5 5 6 7 6
2 2 2 2 2 2 2 3 3 3 3 3 3 3 3 3 3 5 6 6 6 4 4 5 6 7 7 6 6 7 6 5 5 5 6 6 5 5 4 5 5 6 6
2 2 2 2 2 2 2 2 3 3 3 3 3 3 3 3 3 3 3 3 4 4 4 4 6 6 6 6 5 5 4 4 5 5 5 5 4 4 4 4 5 4 4
2 2 2 2 2 2 2 3 3 4 4 4 4 4 4 4 4 5 4 3 3 3 3 3 3 3 3 3 4 4 4 4 5 5 5 5 5 5 5 5 5 5 5
2 2 2 2 2 2 2 2 4 4 5 6 6 6 5 6 7 7 7 6 5 5 4 3 4 4 4 4 4 4 4 5 5 5 5 5 5 5 5 5 5 5 6
3 3 2 2 2 2 2 2 3 3 4 4 5 5 5 6 6 7 7 6 5 4 3 3 4 4 4 4 4 4 4 5 5 5 5 5 5 5 5 5 5 6 6
3 3 3 3 3 3 3 3 3 3 3 3 4 5 5 5 6 6 6 5 3 3 3 3 4 4 4 4 4 4 4 4 5 5 5 5 6 6 6 6 6 6 6
3 3 3 3 3 3 3 3 3 3 3 4 3 4 4 5 5 4 4 3 3 3 3 3 4 4 4 4 4 4 5 5 5 5 5 5 5 6 6 6 6 7 7
3 4 3 3 2 2 3 3 3 3 3 4 4 4 4 4 3 3 3 3 3 4 4 4 4 4 4 4 4 4 5 5 5 5 5 5 5 5 6 7 6 6 6
3 3 4 3 3 3 3 3 3 3 4 4 4 5 5 4 4 4 3 3 3 4 4 4 4 4 4 4 4 5 6 5 5 5 5 5 5 5 5 5 6 6 6
3 3 3 3 3 3 3 3 3 4 4 5 4 4 6 4 3 4 4 4 4 4 4 4 5 4 4 4 5 5 6 6 6 6 6 5 5 5 5 5 5 5 5
3 3 3 3 3 4 4 3 4 4 4 5 4 4 4 4 4 4 5 5 4 4 5 5 5 5 5 6 6 6 6 6 6 6 6 6 6 6 6 6 6 6 6
3 3 3 3 3 3 3 4 4 4 4 4 4 4 5 5 5 5 5 5 5 5 5 5 6 7 8 8 7 8 8 9 9 8 9 8 7 6 6 6 6 7 6
2 2 3 3 3 3 3 4 4 4 4 5 5 5 5 5 5 5 5 5 5 5 6 7 6 7 9 10 10 10 11 12 12 10 9 8 8 8 7 7 6 6 6
2 2 3 3 3 3 3 4 4 5 5 5 5 5 5 5 5 5 5 5 5 6 6 7 8 9 10 10 12 13 13 13 13 13 10 8 8 7 7 7 7 7 7
Wind_Direction
246 245 250 254 248 232 229 230 224 225 226 234 243 246 245 246 235 235 234 231 232 241 244 239 242 247 245 246 245 245 250 249 250 263 267 268 263 267 276 274 277 275 277
254 245 246 253 246 238 244 247 243 241 238 241 243 244 244 245 242 240 241 240 237 238 240 243 248 250 249 247 243 242 247 253 250 258 264 268 263 266 273 274 277 275 277
252 242 243 250 251 254 257 253 253 256 257 251 249 251 252 252 249 245 245 244 244 243 240 238 240 242 247 250 250 249 250 255 256 254 263 269 267 261 270 272 277 278 279
244 241 245 255 258 260 266 258 256 257 261 260 262 262 261 259 256 253 249 252 250 247 245 244 242 241 246 249 250 252 253 254 254 249 254 261 263 259 259 267 277 278 279
238 242 251 261 262 263 265 268 268 264 264 265 268 269 265 260 255 257 256 253 253 255 252 251 251 249 250 249 251 252 252 250 250 252 251 255 253 250 252 259 266 276 277
239 246 251 250 251 255 262 269 271 273 274 268 264 266 267 265 266 268 264 258 253 250 256 260 255 247 240 242 249 252 252 247 246 251 255 253 254 253 254 252 257 267 269
244 246 242 241 244 248 251 257 263 271 273 271 270 266 268 273 270 271 268 267 257 253 250 255 260 255 251 249 248 248 254 252 250 252 253 256 258 255 251 249 249 253 262
247 248 243 236 239 245 244 250 264 273 265 267 269 270 275 275 270 269 270 264 259 256 253 249 254 262 255 256 257 259 262 262 258 256 255 261 265 261 253 251 253 258 270
250 253 253 246 243 244 247 255 267 265 263 266 271 273 272 274 272 269 271 264 256 259 264 259 255 258 253 249 253 257 264 270 261 252 258 263 269 267 258 250 248 248 261
260 260 259 251 243 243 248 258 266 260 261 270 276 277 274 273 271 270 273 257 253 259 262 261 256 260 261 250 249 252 257 266 271 268 262 263 264 261 251 245 244 247 256
267 261 261 256 250 247 251 255 252 254 259 268 274 277 276 273 273 273 276 262 252 260 261 262 261 260 266 264 259 255 256 262 265 261 263 265 265 261 252 248 248 247 246
265 261 262 263 261 252 243 249 247 244 245 255 266 278 278 272 270 272 273 266 257 258 261 262 262 266 273 273 270 260 257 257 257 257 258 258 260 258 253 251 251 251 255
264 266 271 273 269 258 244 244 245 241 242 254 259 269 278 278 272 272 274 270 267 264 263 261 266 271 275 274 269 265 261 256 251 253 256 259 258 260 257 254 254 255 261
257 267 269 268 270 266 257 249 247 244 245 249 255 264 275 278 277 276 277 272 273 273 270 263 262 264 265 261 263 264 258 253 251 253 258 263 260 257 254 251 254 253 258
253 256 262 263 264 269 269 266 260 256 254 255 257 263 266 271 275 283 283 275 269 267 267 261 259 262 263 260 261 260 258 252 251 251 253 257 255 256 261 258 255 252 253
246 255 257 258 259 262 274 291 291 278 276 275 273 271 274 273 279 281 285 281 278 272 266 256 258 262 262 262 264 265 261 259 257 254 253 254 254 252 258 261 255 250 254
242 254 258 255 253 258 263 271 292 308 298 288 282 282 284 285 286 287 289 285 277 270 263 262 264 264 266 267 268 268 269 269 266 259 254 254 255 253 253 255 253 255 258
251 257 260 258 258 259 261 264 268 277 288 292 292 289 291 291 290 291 290 287 271 268 267 265 264 265 267 269 270 271 273 274 269 263 258 254 252 251 252 252 251 254 257
258 257 258 262 261 263 264 264 266 268 272 282 291 294 296 299 296 295 296 276 266 268 272 272 273 273 271 270 271 271 271 271 270 267 264 259 253 250 251 252 252 252 253
261 268 274 271 267 266 263 262 265 266 272 277 282 290 299 300 293 295 292 279 271 272 276 275 276 276 276 276 272 270 270 269 268 264 264 261 255 252 252 252 254 252 250
270 268 277 279 270 268 266 266 268 268 271 277 282 284 287 287 284 284 285 284 278 278 280 281 280 279 278 278 275 269 267 268 268 266 263 260 257 252 254 256 257 255 253
265 265 265 268 269 268 270 271 272 272 275 280 285 286 288 286 280 279 281 281 283 284 283 281 279 277 273 272 272 271 268 266 267 267 265 262 258 254 252 253 256 254 254
264 264 266 264 265 269 275 271 271 272 274 276 281 285 283 280 277 277 279 281 284 285 282 277 276 275 274 272 269 264 265 266 267 266 266 264 259 254 254 254 251 252 252
266 268 270 269 270 271 273 275 274 274 274 276 277 277 277 277 276 276 277 280 281 281 278 275 273 274 276 277 273 268 265 266 268 264 259 259 259 257 253 253 252 249 249
278 278 276 275 276 277 278 278 278 278 278 277 277 276 277 277 277 278 278 277 279 280 280 279 276 275 275 276 275 273 272 271 268 265 261 257 257 254 252 251 249 250 246
293 289 285 281 278 277 276 277 279 281 282 282 280 277 276 276 276 276 277 276 279 282 281 280 280 281 281 278 276 277 276 272 269 267 265 259 254 252 250 248 246 244 244
Height
1487 1488 1489 1489 1490 1490 1490 1491 1491 1491 1492 1492 1493 1493 1494 1495 1495 1496 1496 1497 1498 1498 1499 1499 1500 1501 1502 1502 1503 1504 1504 1505 1504 1504 1505 1505 1505 1506 1506 1506 1505 1505 1505
1484 1485 1485 1486 1486 1487 1487 1487 1488 1488 1489 1489 1489 1490 1490 1491 1491 1492 1492 1493 1493 1494 1494 1495 1495 1496 1497 1498 1498 1499 1499 1500 1500 1499 1499 1500 1500 1501 1501 1501 1501 1501 1501
1481 1481 1482 1482 1483 1483 1484 1484 1484 1485 1485 1485 1485 1486 1486 1487 1487 1488 1488 1488 1489 1489 1490 1490 1491 1492 1492 1492 1493 1494 1494 1495 1495 1495 1494 1495 1495 1495 1495 1496 1496 1495 1496
1478 1478 1478 1479 1479 1480 1480 1481 1481 1481 1481 1481 1482 1482 1482 1483 1483 1484 1484 1484 1484 1485 1485 1485 1486 1486 1487 1487 1488 1489 1490 1490 1490 1490 1490 1490 1490 1490 1490 1490 1490 1490 1490
1475 1475 1475 1476 1476 1476 1477 1477 1477 1478 1478 1478 1478 1478 1478 1478 1479 1479 1479 1479 1480 1480 1480 1480 1481 1481 1482 1482 1483 1483 1484 1484 1484 1485 1484 1484 1484 1485 1485 1485 1485 1485 1485
1471 1472 1472 1472 1472 1473 1473 1473 1474 1474 1474 1474 1474 1474 1474 1474 1474 1474 1475 1475 1475 1475 1475 1475 1476 1476 1476 1477 1478 1478 1479 1479 1479 1479 1479 1479 1479 1479 1480 1480 1480 1480 1479
1468 1468 1468 1469 1469 1469 1469 1470 1470 1470 1470 1470 1470 1469 1469 1469 1470 1470 1470 1470 1470 1470 1470 1470 1471 1471 1471 1472 1472 1473 1473 1474 1474 1475 1474 1474 1474 1474 1475 1475 1475 1474 1474
1465 1465 1465 1465 1465 1465 1465 1466 1466 1465 1466 1466 1466 1465 1465 1465 1465 1465 1465 1465 1465 1465 1465 1466 1466 1466 1466 1467 1467 1467 1467 1468 1468 1468 1469 1469 1469 1469 1469 1469 1470 1470 1469
1461 1461 1461 1461 1461 1461 1461 1462 1462 1462 1462 1462 1461 1461 1460 1460 1461 1461 1461 1460 1460 1460 1461 1461 1461 1461 1462 1462 1463 1462 1462 1462 1463 1463 1463 1463 1463 1463 1464 1464 1464 1464 1463
1458 1458 1458 1458 1458 1457 1457 1457 1458 1458 1458 1457 1457 1457 1456 1456 1456 1456 1456 1456 1456 1456 1456 1456 1457 1457 1458 1458 1458 1458 1457 1457 1457 1457 1457 1457 1457 1457 1458 1458 1459 1459 1458
1454 1454 1454 1454 1454 1454 1454 1454 1454 1454 1453 1453 1453 1453 1452 1452 1452 1452 1452 1452 1452 1451 1451 1451 1452 1452 1453 1453 1453 1453 1452 1452 1452 1452 1452 1452 1452 1452 1452 1453 1453 1453 1453
1451 1450 1450 1450 1450 1450 1450 1450 1450 1450 1449 1449 1448 1448 1448 1448 1448 1447 1448 1448 1448 1448 1447 1447 1447 1447 1448 1448 1448 1448 1448 1448 1447 1447 1447 1446 1446 1446 1447 1447 1447 1447 1447
1447 1447 1446 1446 1446 1446 1446 1446 1446 1446 1445 1445 1444 1444 1444 1444 1444 1444 1444 1444 1444 1443 1443 1443 1443 1443 1443 1443 1443 1443 1443 1443 1442 1442 1442 1441 1441 1441 1442 1442 1442 1442 1441
1444 1443 1443 1443 1443 1442 1442 1442 1442 1442 1441 1441 1440 1440 1440 1440 1440 1440 1439 1440 1439 1439 1439 1438 1438 1438 1438 1438 1438 1438 1438 1437 1437 1437 1437 1437 1437 1437 1436 1436 1436 1436 1436
1441 1440 1440 1440 1439 1439 1438 1438 1438 1438 1438 1438 1437 1437 1436 1436 1436 1436 1436 1435 1435 1435 1435 1434 1434 1434 1433 1433 1433 1433 1433 1432 1432 1432 1432 1432 1432 1432 1432 1432 1431 1431 1431
1437 1437 1437 1436 1436 1435 1435 1435 1434 1435 1434 1434 1434 1434 1433 1433 1432 1432 1432 1432 1432 1432 1431 1430 1430 1429 1429 1429 1428 1428 1428 1428 1428 1428 1427 1427 1427 1426 1427 1427 1427 1426 1426
1434 1433 1433 1433 1432 1432 1431 1431 1430 1431 1431 1430 1430 1430 1429 1429 1429 1428 1428 1428 1428 1428 1427 1426 1426 1425 1425 1424 1424 1424 1423 1423 1423 1423 1422 1422 1422 1422 1422 1422 1422 1421 1421
1431 1430 1430 1429 1429 1429 1428 1428 1427 1426 1426 1426 1426 1426 1425 1425 1425 1424 1424 1424 1424 1423 1423 1422 1421 1421 1421 1420 1420 1419 1419 1419 1418 1418 1418 1417 1417 1417 1417 1417 1417 1416 1416
1428 1427 1427 1426 1426 1425 1425 1424 1424 1423 1423 1422 1422 1422 1422 1421 1421 1421 1420 1420 1419 1418 1418 1418 1417 1417 1416 1416 1415 1415 1414 1414 1414 1413 1413 1412 1412 1412 1412 1412 1411 1411 1411
1425 1424 1424 1423 1422 1422 1421 1421 1420 1420 1420 1419 1418 1418 1418 1417 1416 1416 1416 1415 1415 1414 1414 1413 1413 1412 1412 1411 1410 1410 1409 1409 1409 1408 1408 1407 1407 1407 1407 1407 1406 1406 1406
1421 1421 1420 1420 1419 1419 1418 1418 1417 1417 1416 1415 1415 1415 1414 1414 1413 1412 1412 1411 1411 1410 1409 1409 1408 1408 1407 1406 1406 1405 1405 1404 1404 1403 1403 1403 1402 1402 1402 1402 1401 1401 1401
1418 1417 1417 1416 1416 1415 1415 1414 1414 1413 1412 1412 1411 1411 1411 1410 1409 1409 1408 1407 1407 1406 1405 1404 1403 1403 1402 1402 1401 1401 1400 1399 1399 1398 1398 1398 1397 1397 1397 1397 1397 1396 1396
1415 1414 1414 1413 1413 1412 1411 1411 1410 1409 1409 1408 1408 1407 1407 1406 1405 1404 1404 1403 1402 1402 1401 1400 1399 1398 1397 1397 1396 1396 1395 1395 1394 1394 1394 1393 1393 1392 1392 1392 1392 1391 1391
1412 1411 1410 1410 1409 1408 1408 1407 1406 1406 1405 1404 1404 1403 1403 1402 1401 1400 1400 1399 1398 1397 1396 1395 1394 1393 1392 1392 1391 1391 1390 1390 1389 1389 1389 1388 1388 1388 1387 1387 1387 1386 1386
1409 1408 1408 1407 1406 1405 1404 1403 1403 1402 1401 1401 1400 1399 1398 1397 1397 1396 1395 1394 1393 1392 1391 1390 1389 1388 1387 1387 1386 1385 1385 1385 1384 1384 1384 1383 1383 1383 1382 1382 1382 1381 1381
1406 1405 1404 1403 1402 1402 1401 1400 1399 1398 1397 1397 1396 1395 1394 1393 1392 1391 1390 1389 1388 1387 1386 1385 1384 1383 1382 1381 1381 1380 1380 1379 1379 1379 1379 1379 1378 1378 1377 1377 1377 1377 1376